[[{"header":{"parameterUnit":"m.s-1","parameterCategory":1,"la1":30.2991,"la2":30.254,"lo1":-89.0895,"lo2":-89.0444,"dy":0.0017,"dx":0.0017,"nx":28,"ny":28,"refTime":"2025-03-28T03:00:00:Z","depth":0,"parameterNumber":2,"parameterNumberName":"U-component_of_WINDS"},"data":[0,0,0,0,0,0,0,0,0,0,0,0,0,0,0,0,0,0,0,0,0,0,0,0,0,0,0,0,0,0,0,0,0,0,0,0,0,0,0,0,0,0,0,0,0,0,0,0,0,0,0,0,0,0,0,0,0,0,-5.6879,-5.688,0,-5.6977,-5.6978,-5.6979,-5.6971,-5.6969,-5.6968,-5.6966,-5.7064,-5.7068,-5.7072,0,0,0,0,0,0,0,0,0,0,0,0,0,-5.6683,-5.6687,-5.6879,-5.688,-5.6882,-5.6977,-5.6978,-5.698,-5.6971,-5.6969,-5.6967,-5.6966,-5.7063,-5.7068,-5.7073,0,0,0,0,0,0,0,0,0,0,0,0,0,-5.6773,-5.6688,-5.6879,-5.6889,-5.6891,-5.6977,-5.6978,-5.698,-5.6971,-5.6969,-5.6967,-5.6965,-5.7061,-5.7067,-5.7073,-5.7155,0,0,-5.7092,-5.7094,0,0,0,0,0,0,0,0,-5.6768,-5.6781,-5.6886,-5.6888,-5.6891,-5.696,-5.6945,-5.7039,-5.6972,-5.6941,-5.6966,-5.6964,-5.7031,-5.7039,-5.7063,-5.7159,-5.7164,-5.7092,-5.7096,-5.7098,-5.71,0,0,0,0,0,0,0,-5.6762,-5.6776,-5.6918,-5.6888,-5.689,-5.6888,-5.6898,-5.6963,-5.6997,-5.6943,-5.6943,-5.6955,-5.7032,-5.7057,-5.7065,-5.7165,-5.7092,-5.7097,-5.7101,-5.7103,-5.7334,-5.7336,0,0,0,0,0,0,-5.6754,-5.6771,-5.6915,-5.6921,-5.6823,-5.6893,-5.6905,-5.694,-5.6996,-5.7003,-5.6957,-5.6954,-5.7048,-5.7058,-5.7068,-5.7167,-5.7098,-5.7104,-5.7107,-5.7331,-5.7334,-5.7337,0,0,0,0,0,0,-5.675,-5.6767,-5.6911,-5.6846,-5.6864,-5.6899,-5.6938,-5.6943,-5.6968,-5.7007,-5.7012,-5.6976,-5.7046,-5.706,-5.7134,-5.717,-5.7107,-5.7112,-5.7328,-5.7332,-5.7335,-5.7365,0,0,0,0,0,0,-5.6744,-5.6765,-5.6797,-5.6847,-5.6868,-5.6975,-5.694,-5.6946,-5.6978,-5.6976,-5.7026,-5.7032,-5.7046,-5.7125,-5.7139,-5.7177,-5.7117,-5.7325,-5.733,-5.7334,-5.7361,-5.7369,-5.7376,0,0,0,0,0,-5.6737,-5.6801,-5.6798,-5.6816,-5.6908,-5.6977,-5.6989,-5.7003,-5.6981,-5.7013,-5.7038,-5.7031,-5.7164,-5.7132,-5.7149,-5.7189,-5.7323,-5.7328,-5.7334,-5.7357,-5.7367,-5.7376,0,0,0,0,0,0,-5.6753,-5.6807,-5.6805,-5.6887,-5.6928,-5.6975,-5.7015,-5.7014,-5.7061,-5.7056,-5.7072,-5.7084,-5.7157,-5.7181,-5.7144,-5.7271,-5.724,-5.725,-5.7252,-5.7262,-5.727,-5.7262,-5.7122,0,0,0,0,0,-5.6766,-5.6818,-5.6863,-5.6931,-5.6951,-5.698,-5.7011,-5.7019,-5.7061,-5.7078,-5.7108,-5.7149,-5.72,-5.7233,-5.7282,-5.7365,-5.7375,-5.7401,-5.7409,-5.7415,-5.7422,-5.7467,-5.7479,-5.7355,-5.7355,-5.7355,0,0,-5.6793,-5.683,-5.6861,-5.6935,-5.6967,-5.702,-5.6994,-5.7051,-5.709,-5.7086,-5.7157,-5.7181,-5.7228,-5.7306,-5.7342,-5.7328,-5.7459,-5.7422,-5.7427,-5.7431,-5.7474,-5.7486,-5.7496,-5.7359,-5.7359,-5.7358,0,0,-5.687,-5.6903,-5.6963,-5.6996,-5.7046,-5.7065,-5.7079,-5.7128,-5.7144,-5.7216,-5.7214,-5.7261,-5.7349,-5.7382,-5.741,-5.7501,-5.7495,-5.7517,-5.7556,-5.76,-5.761,-5.7618,-5.7649,-5.766,-5.7524,-5.7524,-5.7524,0,-5.6897,-5.6977,-5.6994,-5.7051,-5.7083,-5.7084,-5.7144,-5.7175,-5.7238,-5.726,-5.7244,-5.7354,-5.7386,-5.7471,-5.7494,-5.7517,-5.7533,-5.7509,-5.7607,-5.7616,-5.7624,-5.7654,-5.7666,-5.7526,-5.7526,-5.7526,-5.7526,0,-5.7007,-5.7063,-5.7106,-5.7167,-5.7204,-5.7263,-5.7288,-5.7324,-5.7329,-5.735,-5.7423,-5.7462,-5.7518,-5.754,-5.7546,-5.7627,-5.7616,-5.7604,-5.7573,-5.7638,-5.7666,-5.7677,-5.7529,-5.7528,-5.7528,-5.7527,0,0,-5.7094,-5.7165,-5.718,-5.7208,-5.7264,-5.7307,-5.7366,-5.7422,-5.7452,-5.7496,-5.7545,-5.762,-5.7609,-5.7641,-5.7651,-5.769,-5.7758,-5.7672,-5.7674,-5.7685,-5.7848,-5.7856,-5.7869,-5.7756,-5.7758,-5.776,-5.7844,0,-5.7175,-5.7279,-5.7296,-5.7388,-5.7439,-5.7441,-5.7492,-5.7531,-5.7553,-5.7599,-5.7623,-5.7675,-5.7658,-5.7677,-5.7716,-5.7741,-5.779,-5.7736,-5.78,-5.7802,-5.7786,-5.7884,-5.7892,-5.7969,-5.7855,-5.7857,-5.7858,0,-5.7282,-5.7329,-5.7426,-5.7475,-5.7497,-5.7542,-5.7596,-5.764,-5.7685,-5.7698,-5.7735,-5.7741,-5.7801,-5.777,-5.7854,-5.7816,-5.7844,-5.7861,-5.7864,-5.7869,-5.7832,-5.7889,-5.7994,-5.8005,-5.7876,-5.7875,-5.7874,0,-5.7333,-5.7421,-5.749,-5.7514,-5.7574,-5.7606,-5.7632,-5.7675,-5.7707,-5.7754,-5.7776,-5.7829,-5.7857,-5.7898,-5.7918,-5.7894,-5.8,-5.797,-5.8011,-5.801,-5.8031,-5.8029,-5.814,-5.8053,-5.8053,-5.8052,-5.8052,0,-5.742,-5.7478,-5.7514,-5.7556,-5.7622,-5.7642,-5.7706,-5.7732,-5.777,-5.7817,-5.7823,-5.7866,-5.7891,-5.7938,-5.7954,-5.802,-5.8033,-5.8045,-5.8048,-5.8043,-5.8041,-5.8059,-5.8054,-5.8055,-5.8055,-5.8054,-5.8054,0,-5.7487,-5.7514,-5.7589,-5.7639,-5.7653,-5.7699,-5.7742,-5.7783,-5.7805,-5.7865,-5.788,-5.7914,-5.797,-5.7995,-5.8064,-5.8075,-5.8149,-5.815,-5.8134,-5.8135,-5.8173,-5.8169,-5.8298,-5.8316,-5.8219,-5.822,-5.822,0,-5.7539,-5.7585,-5.764,-5.7672,-5.7699,-5.7751,-5.7785,-5.7807,-5.7842,-5.7897,-5.7931,-5.7988,-5.8034,-5.8123,-5.8154,-5.8207,-5.8207,-5.8249,-5.8215,-5.8209,-5.8206,-5.8202,-5.8206,-5.8254,-5.8255,-5.8256,-5.8257,0,-5.7629,-5.764,-5.7689,-5.7743,-5.7784,-5.7827,-5.7869,-5.7895,-5.7924,-5.7963,-5.8021,-5.8057,-5.8128,-5.8183,-5.8238,-5.8264,-5.8265,-5.8268,-5.828,-5.8274,-5.8262,-5.8267,-5.8149,-5.8264,-5.8263,-5.8263,-5.8262,-5.8262,-5.769,-5.773,-5.7775,-5.7829,-5.7864,-5.7903,-5.7944,-5.7972,-5.8021,-5.808,-5.8091,-5.8152,-5.8196,-5.827,-5.8299,-5.8347,-5.8337,-5.8354,-5.8358,-5.8362,-5.8363,-5.8257,-5.8357,-5.8357,-5.8357,-5.8357,-5.8357,0,-5.7778,-5.7808,-5.7858,-5.7917,-5.796,-5.7959,-5.8006,-5.8041,-5.8095,-5.8137,-5.8182,-5.8249,-5.8303,-5.8339,-5.8394,-5.8425,-5.8427,-5.8439,-5.8435,-5.8441,-5.837,-5.8354,-5.8436,-5.8436,-5.8436,-5.8436,-5.8436,-5.8436,-5.7829,-5.7896,-5.7913,-5.7998,-5.8027,-5.8087,-5.8114,-5.8151,-5.8184,-5.8258,-5.8303,-5.8327,-5.8366,-5.8424,-5.8474,-5.8483,-5.8502,-5.8514,-5.8522,-5.8455,-5.8446,-5.8438,-5.8423,-5.8519,-5.8519,-5.8589,-5.859,-5.859]},{"header":{"parameterUnit":"m.s-1","parameterCategory":1,"la1":30.2991,"la2":30.254,"lo1":-89.0895,"lo2":-89.0444,"dy":0.0017,"dx":0.0017,"nx":28,"ny":28,"refTime":"2025-03-28T03:00:00:Z","depth":0,"parameterNumber":3,"parameterNumberName":"V-component_of_WINDS"},"data":[0,0,0,0,0,0,0,0,0,0,0,0,0,0,0,0,0,0,0,0,0,0,0,0,0,0,0,0,0,0,0,0,0,0,0,0,0,0,0,0,0,0,0,0,0,0,0,0,0,0,0,0,0,0,0,0,0,0,5.2539,5.254,0,5.2659,5.266,5.2661,5.2668,5.2667,5.2665,5.2664,5.2783,5.2787,5.2792,0,0,0,0,0,0,0,0,0,0,0,0,0,5.2313,5.2317,5.2539,5.254,5.2542,5.2659,5.266,5.2662,5.2668,5.2666,5.2665,5.2663,5.2781,5.2787,5.2792,0,0,0,0,0,0,0,0,0,0,0,0,0,5.2419,5.2318,5.2538,5.2559,5.2562,5.2658,5.266,5.2662,5.2669,5.2666,5.2664,5.2662,5.278,5.2786,5.2793,5.2875,0,0,5.2813,5.2816,0,0,0,0,0,0,0,0,5.2413,5.2428,5.2554,5.2558,5.2561,5.2646,5.2624,5.2734,5.2669,5.2628,5.2664,5.2661,5.2739,5.2749,5.2776,5.2881,5.2886,5.2814,5.2818,5.2821,5.2823,0,0,0,0,0,0,0,5.2406,5.2423,5.2586,5.2556,5.256,5.2562,5.2574,5.2645,5.2693,5.2631,5.2632,5.2646,5.274,5.2769,5.2779,5.2888,5.2814,5.282,5.2824,5.2826,5.3069,5.3071,0,0,0,0,0,0,5.2395,5.2416,5.2582,5.259,5.2481,5.2567,5.2582,5.2621,5.2693,5.2702,5.2648,5.2646,5.2759,5.2771,5.2783,5.2886,5.2821,5.2827,5.2831,5.3067,5.307,5.3072,0,0,0,0,0,0,5.239,5.241,5.2577,5.2503,5.2525,5.2573,5.2617,5.2624,5.2654,5.2705,5.2714,5.2669,5.2758,5.2773,5.2853,5.289,5.283,5.2836,5.3064,5.3068,5.3071,5.3092,0,0,0,0,0,0,5.2384,5.2408,5.244,5.2504,5.2529,5.2646,5.262,5.2628,5.2665,5.2664,5.2727,5.2736,5.2757,5.2843,5.286,5.2898,5.2841,5.3061,5.3065,5.307,5.3088,5.3096,5.3102,0,0,0,0,0,5.2375,5.244,5.2442,5.2462,5.257,5.2648,5.2662,5.2687,5.2668,5.2701,5.2735,5.2734,5.2883,5.2851,5.287,5.2911,5.3058,5.3064,5.3069,5.3085,5.3094,5.3102,0,0,0,0,0,0,5.2377,5.2448,5.2451,5.2539,5.2588,5.2649,5.2691,5.2696,5.275,5.2747,5.2774,5.2788,5.2868,5.2897,5.286,5.2996,5.2969,5.2978,5.2974,5.2983,5.299,5.2982,5.2847,0,0,0,0,0,5.2388,5.2447,5.2505,5.2576,5.2601,5.2642,5.2677,5.2692,5.2744,5.2764,5.2803,5.2852,5.2911,5.2948,5.3005,5.3092,5.3107,5.313,5.3137,5.3143,5.3151,5.3201,5.3213,5.309,5.309,5.309,0,0,5.241,5.2456,5.2491,5.2578,5.2618,5.2678,5.2659,5.2723,5.2768,5.2773,5.2852,5.2883,5.2939,5.3024,5.3063,5.3051,5.3188,5.315,5.3154,5.3159,5.3208,5.3219,5.323,5.3094,5.3093,5.3093,0,0,5.2482,5.2522,5.2587,5.2628,5.269,5.2717,5.2732,5.2794,5.2816,5.2895,5.2902,5.2954,5.3054,5.3095,5.3128,5.3218,5.3219,5.3235,5.3273,5.3322,5.3331,5.334,5.3374,5.3385,5.3243,5.3243,5.3243,0,5.2502,5.2593,5.262,5.2685,5.2723,5.2733,5.2799,5.2837,5.2912,5.2939,5.2924,5.3051,5.3089,5.3185,5.3207,5.3233,5.3253,5.3229,5.3328,5.3337,5.3346,5.3378,5.339,5.3245,5.3245,5.3244,5.3244,0,5.2615,5.2679,5.2723,5.2799,5.2842,5.2907,5.2943,5.2984,5.2996,5.3024,5.3106,5.3153,5.322,5.3244,5.3254,5.3341,5.3332,5.3322,5.3296,5.3359,5.3389,5.3402,5.3247,5.3247,5.3246,5.3246,0,0,5.2691,5.2782,5.2798,5.2834,5.2903,5.2952,5.3017,5.3085,5.312,5.3172,5.3228,5.3313,5.3306,5.3344,5.336,5.3403,5.3473,5.3388,5.339,5.3404,5.3573,5.3581,5.3595,5.3474,5.3477,5.3478,5.3569,0,5.2772,5.289,5.2917,5.3019,5.3078,5.3089,5.3147,5.3195,5.3224,5.3278,5.3309,5.337,5.3354,5.3378,5.3421,5.3455,5.3508,5.3449,5.3527,5.3529,5.3514,5.3611,5.3619,5.3702,5.3581,5.3583,5.3585,0,5.2881,5.2939,5.3047,5.3111,5.3137,5.3188,5.3253,5.3305,5.336,5.3378,5.3422,5.3434,5.3503,5.3473,5.3568,5.3528,5.3561,5.3583,5.3587,5.3596,5.3561,5.3624,5.3729,5.3742,5.3604,5.3602,5.3601,0,5.2928,5.3032,5.3111,5.3141,5.3216,5.3252,5.3285,5.3339,5.3378,5.3435,5.3461,5.3524,5.3558,5.3607,5.3635,5.361,5.3729,5.3701,5.3747,5.3746,5.3772,5.377,5.3885,5.3791,5.3791,5.3791,5.379,0,5.3016,5.3082,5.3133,5.3182,5.3257,5.3287,5.336,5.3392,5.344,5.3496,5.3508,5.3559,5.3593,5.3649,5.3672,5.3749,5.3764,5.378,5.3786,5.378,5.3778,5.3803,5.3799,5.3794,5.3793,5.3793,5.3792,0,5.3081,5.3118,5.3205,5.327,5.3288,5.3341,5.3396,5.3444,5.3473,5.3543,5.3561,5.3607,5.3674,5.3708,5.379,5.3805,5.3893,5.3893,5.3875,5.3877,5.3922,5.3918,5.4058,5.4079,5.3969,5.397,5.3971,0,5.3136,5.3187,5.3259,5.3298,5.3332,5.3394,5.3435,5.3466,5.3508,5.3577,5.3616,5.3684,5.3741,5.3847,5.3887,5.3951,5.3955,5.3999,5.3964,5.3958,5.3957,5.3955,5.3961,5.4006,5.4007,5.4008,5.4008,0,5.3229,5.3245,5.3305,5.3372,5.3421,5.3474,5.3527,5.3557,5.3597,5.3644,5.3714,5.3758,5.3843,5.3911,5.3978,5.4011,5.4017,5.4019,5.4034,5.4029,5.4017,5.4026,5.3893,5.4016,5.4015,5.4015,5.4014,5.4014,5.3292,5.3339,5.3398,5.3464,5.3508,5.3557,5.3606,5.3642,5.3701,5.3775,5.3789,5.3864,5.3919,5.401,5.4046,5.4104,5.4094,5.4114,5.412,5.4125,5.4128,5.4006,5.4116,5.4116,5.4115,5.4115,5.4115,0,5.3388,5.3427,5.3487,5.3562,5.3614,5.3616,5.3675,5.3719,5.3784,5.3836,5.3892,5.3973,5.4039,5.4085,5.4152,5.419,5.4195,5.4207,5.4205,5.4213,5.4132,5.4114,5.4202,5.4202,5.4202,5.4202,5.4202,5.4202,5.3444,5.3525,5.3548,5.3651,5.3689,5.3763,5.3797,5.3843,5.3885,5.3975,5.4031,5.4061,5.4111,5.4182,5.4243,5.4255,5.428,5.4292,5.4304,5.4228,5.4219,5.421,5.4193,5.4297,5.4297,5.4381,5.4382,5.4383]}]]